• Em Portugal
  • Lista de países
  • Para 7 dias
  • Temperatura da água
  • Mapas de satélite
  • Mapa do tempo
  • Widgets de tempo
  • user-avatar
    Iniciar Sessão

    Previsão horária em Gwatemala

    Hoje, 24 Fevereiro, Sábado

    Tempo Temperatura Precipitação Vento Pressão Humidade
    00:00 +15°C° 0 mm 1 m/s 639 mmHg 84%
    01:00 +15°C° 0 mm 1 m/s 638 mmHg 85%
    02:00 +15°C° 0 mm 1 m/s 638 mmHg 85%
    03:00 +15°C° 0 mm 1 m/s 638 mmHg 86%
    04:00 +15°C° 0 mm 1 m/s 638 mmHg 86%
    05:00 +14°C° 0 mm 1 m/s 638 mmHg 86%
    06:00 +14°C° 0 mm 1 m/s 638 mmHg 86%
    07:00 +18°C° 0 mm 1 m/s 639 mmHg 75%
    08:00 +21°C° 0 mm 1 m/s 640 mmHg 64%
    09:00 +23°C° 0 mm 1 m/s 641 mmHg 52%
    10:00 +25°C° 0,1 mm 1 m/s 641 mmHg 48%
    11:00 +26°C° 0,1 mm 1 m/s 641 mmHg 44%
    12:00 +27°C° 0,1 mm 2 m/s 641 mmHg 40%
    13:00 +26°C° 0,3 mm 2 m/s 641 mmHg 43%
    14:00 +26°C° 0,3 mm 2 m/s 640 mmHg 46%
    15:00 +25°C° 0,3 mm 2 m/s 639 mmHg 49%
    16:00 +24°C° 0,6 mm 1 m/s 639 mmHg 57%
    17:00 +22°C° 0,6 mm 1 m/s 638 mmHg 64%
    18:00 +20°C° 0,6 mm 1 m/s 638 mmHg 72%
    19:00 +19°C° 0,3 mm 1 m/s 638 mmHg 76%
    20:00 +18°C° 0,3 mm 1 m/s 638 mmHg 81%
    21:00 +15°C° 0,3 mm 0 m/s 638 mmHg 86%
    22:00 +16°C° 0,1 mm 1 m/s 638 mmHg 86%
    23:00 +15°C° 0,1 mm 1 m/s 638 mmHg 87%

    Amanhã, 25 Fevereiro, Domingo

    Tempo Temperatura Precipitação Vento Pressão Humidade
    00:00 +15°C° 0,1 mm 1 m/s 638 mmHg 87%
    01:00 +15°C° 0 mm 1 m/s 638 mmHg 87%
    02:00 +14°C° 0 mm 1 m/s 637 mmHg 87%
    03:00 +14°C° 0 mm 1 m/s 637 mmHg 87%
    04:00 +14°C° 0 mm 1 m/s 637 mmHg 87%
    05:00 +14°C° 0 mm 1 m/s 637 mmHg 87%
    06:00 +13°C° 0 mm 1 m/s 637 mmHg 87%
    07:00 +16°C° 0 mm 1 m/s 638 mmHg 75%
    08:00 +18°C° 0 mm 0 m/s 640 mmHg 63%
    09:00 +22°C° 0 mm 0 m/s 641 mmHg 51%
    10:00 +25°C° 0 mm 1 m/s 641 mmHg 45%
    11:00 +27°C° 0 mm 1 m/s 641 mmHg 39%
    12:00 +29°C° 0 mm 1 m/s 642 mmHg 33%
    13:00 +28°C° 0,3 mm 2 m/s 641 mmHg 36%
    14:00 +27°C° 0,3 mm 2 m/s 640 mmHg 39%
    15:00 +26°C° 0,3 mm 2 m/s 639 mmHg 41%
    16:00 +24°C° 0,3 mm 2 m/s 639 mmHg 50%
    17:00 +22°C° 0,3 mm 1 m/s 638 mmHg 58%
    18:00 +20°C° 0,3 mm 1 m/s 638 mmHg 66%
    19:00 +19°C° 0,3 mm 1 m/s 638 mmHg 72%
    20:00 +18°C° 0,3 mm 1 m/s 638 mmHg 78%
    21:00 +15°C° 0,3 mm 0 m/s 639 mmHg 84%
    22:00 +16°C° 0 mm 1 m/s 639 mmHg 84%
    23:00 +15°C° 0 mm 1 m/s 639 mmHg 84%

    Depois de amanhã, 26 Fevereiro, Segunda-feira

    Tempo Temperatura Precipitação Vento Pressão Humidade
    00:00 +15°C° 0 mm 1 m/s 638 mmHg 85%
    01:00 +15°C° 0 mm 1 m/s 638 mmHg 85%
    02:00 +14°C° 0 mm 1 m/s 638 mmHg 85%
    03:00 +14°C° 0 mm 1 m/s 637 mmHg 85%
    04:00 +14°C° 0 mm 1 m/s 637 mmHg 84%
    05:00 +13°C° 0 mm 1 m/s 637 mmHg 83%
    06:00 +13°C° 0 mm 1 m/s 637 mmHg 83%
    07:00 +16°C° 0 mm 1 m/s 639 mmHg 71%
    08:00 +20°C° 0 mm 1 m/s 640 mmHg 59%
    09:00 +23°C° 0 mm 1 m/s 642 mmHg 47%
    10:00 +25°C° 0 mm 1 m/s 642 mmHg 41%
    11:00 +27°C° 0 mm 1 m/s 642 mmHg 35%
    12:00 +29°C° 0 mm 2 m/s 642 mmHg 28%
    13:00 +28°C° 0 mm 2 m/s 641 mmHg 31%
    14:00 +27°C° 0 mm 2 m/s 640 mmHg 33%
    15:00 +27°C° 0 mm 2 m/s 639 mmHg 36%
    16:00 +25°C° 0,1 mm 2 m/s 639 mmHg 45%
    17:00 +23°C° 0,1 mm 1 m/s 639 mmHg 53%
    18:00 +21°C° 0,1 mm 1 m/s 638 mmHg 62%
    19:00 +19°C° 0 mm 1 m/s 639 mmHg 68%
    20:00 +18°C° 0 mm 1 m/s 639 mmHg 74%
    21:00 +16°C° 0 mm 1 m/s 639 mmHg 79%
    22:00 +16°C° 0 mm 1 m/s 639 mmHg 81%
    23:00 +15°C° 0 mm 1 m/s 639 mmHg 82%

    27 Fevereiro, Terça-feira

    Tempo Temperatura Precipitação Vento Pressão Humidade
    00:00 +15°C° 0 mm 1 m/s 639 mmHg 83%
    01:00 +15°C° 0 mm 1 m/s 638 mmHg 84%
    02:00 +14°C° 0 mm 1 m/s 638 mmHg 85%
    03:00 +14°C° 0 mm 2 m/s 637 mmHg 87%
    04:00 +14°C° 0 mm 2 m/s 638 mmHg 86%
    05:00 +13°C° 0 mm 2 m/s 638 mmHg 86%
    06:00 +13°C° 0 mm 2 m/s 638 mmHg 85%
    07:00 +16°C° 0 mm 1 m/s 639 mmHg 73%
    08:00 +20°C° 0 mm 1 m/s 640 mmHg 61%
    09:00 +22°C° 0 mm 1 m/s 642 mmHg 49%
    10:00 +24°C° 0 mm 2 m/s 642 mmHg 42%
    11:00 +26°C° 0 mm 2 m/s 642 mmHg 34%
    12:00 +28°C° 0 mm 2 m/s 642 mmHg 26%
    13:00 +28°C° 0 mm 2 m/s 641 mmHg 27%
    14:00 +28°C° 0 mm 3 m/s 641 mmHg 27%
    15:00 +28°C° 0 mm 3 m/s 640 mmHg 28%
    16:00 +25°C° 0 mm 2 m/s 639 mmHg 38%
    17:00 +23°C° 0 mm 2 m/s 639 mmHg 48%
    18:00 +21°C° 0 mm 1 m/s 638 mmHg 57%
    19:00 +19°C° 0 mm 1 m/s 638 mmHg 64%
    20:00 +18°C° 0 mm 1 m/s 638 mmHg 70%
    21:00 +15°C° 0 mm 1 m/s 639 mmHg 76%
    22:00 +15°C° 0 mm 1 m/s 638 mmHg 78%
    23:00 +15°C° 0 mm 1 m/s 638 mmHg 80%

    28 Fevereiro, Quarta-feira

    Tempo Temperatura Precipitação Vento Pressão Humidade
    00:00 +14°C° 0 mm 1 m/s 638 mmHg 82%
    01:00 +14°C° 0 mm 1 m/s 637 mmHg 83%
    02:00 +13°C° 0 mm 1 m/s 637 mmHg 84%
    03:00 +13°C° 0 mm 1 m/s 636 mmHg 84%
    04:00 +13°C° 0 mm 1 m/s 636 mmHg 83%
    05:00 +13°C° 0 mm 1 m/s 636 mmHg 81%
    06:00 +12°C° 0 mm 1 m/s 636 mmHg 80%
    07:00 +16°C° 0 mm 1 m/s 638 mmHg 66%
    08:00 +20°C° 0 mm 1 m/s 639 mmHg 52%
    09:00 +21°C° 0 mm 0 m/s 640 mmHg 38%
    10:00 +25°C° 0 mm 1 m/s 641 mmHg 34%
    11:00 +27°C° 0 mm 1 m/s 641 mmHg 29%
    12:00 +29°C° 0 mm 1 m/s 641 mmHg 25%
    13:00 +29°C° 0 mm 2 m/s 640 mmHg 27%
    14:00 +28°C° 0 mm 2 m/s 639 mmHg 28%
    15:00 +27°C° 0 mm 2 m/s 638 mmHg 30%
    16:00 +26°C° 0 mm 2 m/s 638 mmHg 39%
    17:00 +24°C° 0 mm 2 m/s 637 mmHg 48%
    18:00 +22°C° 0 mm 1 m/s 637 mmHg 57%
    19:00 +20°C° 0 mm 1 m/s 637 mmHg 65%
    20:00 +19°C° 0 mm 1 m/s 637 mmHg 74%
    21:00 +15°C° 0 mm 0 m/s 637 mmHg 83%
    22:00 +15°C° 0 mm 0 m/s 637 mmHg 84%
    23:00 +14°C° 0 mm 0 m/s 637 mmHg 86%

    1 Março, Quinta-feira

    Tempo Temperatura Precipitação Vento Pressão Humidade
    00:00 +14°C° 0 mm 0 m/s 637 mmHg 87%
    01:00 +15°C° 0 mm 1 m/s 636 mmHg 87%
    02:00 +14°C° 0 mm 1 m/s 636 mmHg 87%
    03:00 +14°C° 0 mm 1 m/s 636 mmHg 87%
    04:00 +14°C° 0 mm 1 m/s 636 mmHg 87%
    05:00 +14°C° 0 mm 1 m/s 636 mmHg 86%
    06:00 +14°C° 0 mm 1 m/s 636 mmHg 86%
    07:00 +18°C° 0 mm 1 m/s 637 mmHg 74%
    08:00 +21°C° 0 mm 1 m/s 639 mmHg 62%
    09:00 +24°C° 0 mm 1 m/s 640 mmHg 49%
    10:00 +25°C° 0 mm 1 m/s 640 mmHg 45%
    11:00 +27°C° 0 mm 1 m/s 640 mmHg 41%
    12:00 +28°C° 0 mm 2 m/s 640 mmHg 36%
    13:00 +28°C° 0 mm 2 m/s 639 mmHg 37%
    14:00 +27°C° 0 mm 2 m/s 639 mmHg 38%
    15:00 +27°C° 0 mm 2 m/s 638 mmHg 39%
    16:00 +25°C° 0,1 mm 2 m/s 638 mmHg 46%
    17:00 +24°C° 0,1 mm 1 m/s 637 mmHg 53%
    18:00 +22°C° 0,1 mm 1 m/s 637 mmHg 60%
    19:00 +21°C° 0 mm 1 m/s 637 mmHg 66%
    20:00 +19°C° 0 mm 1 m/s 638 mmHg 72%
    21:00 +18°C° 0 mm 1 m/s 638 mmHg 79%
    22:00 +18°C° 0 mm 1 m/s 638 mmHg 78%
    23:00 +16°C° 0 mm 1 m/s 638 mmHg 78%
    Mostrar mais